Location: Moscow
(55.7500°N, 37.5830°E)
Time: 16:42:22
(UTC+03:00)

Tiros 1 despin weight - Pass Details

Date: 04 December 2021
Orbit: 592 x 641 km, 48.2° (Epoch: 23 January)

Event Time Altitude Azimuth Distance (km) Brightness Sun altitude
Rises 18:28:06 0° 268° (W) 2,826 ? -19.4°
Reaches altitude 10° 18:30:59 10° 249° (WSW) 1,923 ? -19.8°
Maximum altitude 18:33:55 18° 207° (SSW) 1,488 ? -20.2°
Drops below altitude 10° 18:36:52 10° 164° (SSE) 1,926 ? -20.6°
Enters shadow 18:37:43 - 157° (SSE) 2,166 ? -20.7°
